Location: Newark
(39.3539°N, 74.7750°W)
Time: 14:12:53
(UTC+00:00)

Envisat - Visible Passes

Search period start: 23 September 2020 00:00
Search period end: 03 October 2020 00:00
Orbit: 764 x 766 km, 98.1° (Epoch: 23 September)

Date Brightness Start Highest point End Pass type
(mag) Time Alt. Az. Time Alt. Az. Time Alt. Az.
23 Sep 6.2 09:49:03 10° ENE 09:51:55 15° E 09:54:45 10° SE visible
24 Sep 6.5 23:45:27 10° WSW 23:47:25 12° W 23:49:23 10° WNW visible
25 Sep 5.5 10:13:19 10° NE 10:17:34 27° E 10:21:50 10° SSE visible
26 Sep 6.5 09:38:49 10° ENE 09:40:25 11° E 09:42:00 10° ESE visible
27 Sep 6.2 23:32:53 10° SW 23:35:55 16° W 23:38:59 10° NW visible
28 Sep 5.9 10:02:20 10° NE 10:06:08 21° E 10:09:55 10° SE visible
30 Sep 4.9 10:27:02 10° NNE 10:31:45 37° E 10:36:25 10° SSE visible
30 Sep 6.0 23:20:45 10° SW 23:24:28 20° W 23:28:11 10° NW visible
01 Oct 6.1 09:51:30 10° NE 09:54:40 16° E 09:57:49 10° SE visible
02 Oct 6.6 23:48:52 10° WSW 23:50:11 11° W 23:51:28 10° WNW visible
